Temperature
14 14 13 13 13 13 12 12 12 12 11 11 11 11 11 11 11 12 12 12 12 12 12 12 13 13 13 13 14 14 14 14 14 15 15 15 15 16 16 16 16 16 16
15 14 14 13 13 13 13 12 12 12 11 11 11 11 11 11 11 11 12 12 12 12 12 12 12 13 13 13 13 13 14 14 14 14 15 15 15 15 15 16 16 16 16
15 14 14 14 13 13 13 13 12 12 12 12 11 11 11 11 11 11 11 12 12 12 12 12 12 12 13 13 13 13 13 13 14 14 14 14 15 15 15 15 15 15 16
15 15 15 14 14 14 13 13 13 12 12 12 12 12 11 11 11 11 11 12 12 12 12 12 12 12 12 13 13 13 13 13 13 13 14 14 14 14 14 15 15 15 15
16 15 15 15 14 14 14 13 13 13 12 12 12 12 12 12 11 11 11 11 12 12 12 12 12 12 12 12 12 13 13 13 13 13 13 14 14 14 14 14 14 15 15
16 16 15 15 14 14 14 13 13 13 13 12 12 12 12 12 12 11 11 11 12 12 12 12 12 12 12 12 12 12 12 13 13 13 13 13 14 14 14 14 14 14 14
16 16 15 15 15 14 14 14 13 13 13 13 12 12 12 12 12 12 11 11 11 11 12 12 12 12 12 12 12 12 12 12 13 13 13 13 14 14 14 14 14 14 14
16 16 15 15 15 14 14 14 14 13 13 13 13 12 12 12 12 12 11 11 11 11 11 12 12 12 12 12 12 12 12 12 12 13 13 13 13 13 13 14 14 13 14
16 16 15 15 15 15 14 14 14 13 13 13 13 13 12 12 12 12 12 12 12 12 11 11 12 12 12 11 12 12 12 12 12 12 13 13 13 13 13 13 13 13 13
16 16 15 15 15 15 14 14 14 14 13 13 13 13 13 12 12 12 12 12 12 12 12 11 12 12 12 11 11 11 12 12 12 12 13 13 13 13 13 13 13 13 12
15 15 15 15 14 14 14 14 14 14 14 13 13 13 13 13 12 12 12 12 12 12 12 12 12 12 12 12 11 11 12 12 12 12 12 12 12 13 13 13 13 13 12
15 15 14 14 14 14 14 14 13 13 13 13 13 13 13 13 12 12 12 12 12 12 12 12 12 12 12 12 12 12 12 12 12 12 12 12 12 12 12 12 12 12 12
14 14 14 13 13 13 13 13 13 13 13 13 13 13 13 13 13 12 12 12 12 12 12 12 12 12 12 12 12 12 12 12 12 11 12 12 12 12 12 12 12 12 12
14 13 13 13 13 13 12 12 12 12 12 12 12 12 12 12 12 12 12 12 12 12 12 12 12 12 12 12 12 12 12 11 11 11 11 11 12 12 12 12 12 12 12
13 12 12 12 12 12 12 11 11 11 11 11 11 11 12 12 12 12 12 12 12 12 12 12 12 12 12 12 12 12 12 11 11 11 11 11 11 11 11 11 11 12 11
12 12 11 11 11 11 11 11 11 11 11 11 11 11 11 11 11 12 12 12 12 12 11 11 11 11 11 11 11 11 11 11 11 11 11 11 11 11 11 11 11 11 11
11 10 10 10 10 10 10 10 10 10 10 10 10 10 10 11 11 11 11 11 11 11 11 11 10 10 10 10 11 11 11 11 11 11 11 11 11 11 11 11 11 11 11
10 9 9 9 9 9 9 9 9 9 9 10 10 10 10 10 10 10 10 10 10 10 10 9 9 10 10 10 10 10 10 11 11 11 11 11 11 11 11 11 11 11 11
9 8 8 8 8 8 8 8 8 8 8 8 9 9 9 9 9 9 9 9 9 9 9 8 9 9 9 9 9 10 10 10 10 10 11 11 11 11 11 11 11 11 11
8 8 8 7 7 7 7 7 7 7 7 7 7 7 7 8 8 8 8 7 7 7 7 7 8 8 8 8 8 9 9 9 10 10 10 10 10 10 11 11 11 11 11
8 7 7 7 7 7 7 6 6 6 6 6 6 6 6 6 6 6 6 6 6 6 6 6 6 7 7 7 7 8 8 8 9 9 9 9 10 10 10 10 10 10 10
7 7 7 7 6 6 6 6 6 6 6 5 5 5 5 5 5 5 5 5 5 5 5 5 5 5 6 6 6 6 7 7 7 8 8 9 9 9 10 10 10 10 10
7 6 6 6 6 6 5 5 5 5 5 5 5 5 5 4 4 4 4 4 4 4 4 4 4 4 4 5 5 5 5 5 6 6 6 7 8 8 9 9 9 10 10
6 6 6 5 5 5 5 5 4 4 4 4 4 4 4 4 4 3 3 4 4 4 4 3 3 3 4 4 4 4 4 4 5 5 5 6 6 7 8 8 9 9 10
6 5 5 5 5 5 4 4 4 4 4 3 3 3 3 3 3 3 3 3 3 3 3 3 3 3 3 3 3 3 3 3 4 4 5 5 5 6 6 7 8 8 9
5 5 5 4 4 4 4 4 3 3 3 3 3 3 2 2 2 2 2 2 2 2 2 2 2 2 2 2 2 3 3 3 3 3 3 4 5 5 6 6 7 7 8
Wind_Speed
4 3 2 2 2 2 2 3 3 4 4 5 5 5 5 5 4 3 4 4 4 4 4 4 4 4 3 3 4 4 4 5 6 4 3 3 4 4 4 6 9 10 13
5 4 3 2 2 2 3 3 3 4 4 4 5 5 5 5 4 4 4 4 4 4 5 4 5 4 3 3 3 4 4 5 5 5 3 3 5 5 6 6 6 8 9
5 4 3 3 3 3 4 4 3 3 4 4 4 5 5 5 4 4 4 4 4 5 4 5 5 4 4 3 3 4 4 4 4 4 4 3 3 3 4 5 5 5 7
6 5 5 5 5 5 4 3 3 4 4 4 4 5 5 5 5 4 4 4 5 5 5 4 5 4 4 4 4 4 4 4 4 4 4 3 3 3 4 4 5 5 6
6 6 7 6 5 4 4 4 4 4 4 4 4 5 5 5 4 5 4 4 4 5 5 5 5 6 6 4 4 4 4 4 4 4 5 3 4 4 4 4 5 5 5
6 7 6 5 5 5 5 4 4 4 4 4 5 5 6 5 8 8 6 4 4 5 6 6 6 6 6 6 5 5 6 6 6 5 5 6 6 5 5 5 5 4 4
4 5 5 5 5 6 5 4 5 5 4 5 5 5 6 8 10 9 8 4 4 5 5 5 5 5 5 4 5 5 5 7 8 7 7 7 6 6 6 6 6 6 5
2 3 4 4 5 5 5 5 6 5 5 5 6 6 6 8 9 8 8 4 4 5 5 5 5 5 5 4 3 4 4 5 6 6 7 7 7 6 7 7 6 4 2
1 3 4 4 5 5 5 6 6 5 5 5 6 6 6 8 9 8 6 3 4 6 6 5 5 5 7 6 3 4 5 5 6 8 8 8 9 10 8 5 5 5 4
3 4 4 3 4 5 6 6 5 5 6 6 6 6 6 7 9 9 6 2 4 5 5 5 7 7 8 6 4 4 6 6 5 5 5 7 7 8 10 9 8 7 4
3 3 3 3 4 4 4 4 4 5 5 5 6 7 6 7 8 9 7 3 4 5 5 5 5 9 10 9 7 6 9 7 5 5 5 5 4 5 6 7 7 7 7
3 3 4 4 4 4 4 5 4 4 4 5 5 7 6 6 6 8 8 6 5 4 5 5 6 10 11 11 8 8 10 8 4 4 4 5 5 5 5 6 7 7 7
4 4 5 6 6 5 4 4 4 3 3 4 4 5 6 5 5 8 8 8 7 5 6 9 10 12 11 8 8 9 7 4 3 4 5 5 5 5 4 4 5 5 5
5 5 6 6 7 6 5 4 3 3 3 3 4 4 5 5 5 5 5 5 6 5 6 8 10 10 7 7 7 5 4 4 4 5 5 5 4 4 4 4 4 4 4
6 6 6 6 6 6 5 4 3 3 2 2 2 3 4 6 8 8 5 4 4 5 5 4 4 4 5 5 4 4 4 4 4 4 4 5 4 5 4 3 4 4 5
5 6 5 5 5 5 5 5 6 6 8 8 7 5 4 6 10 11 9 8 8 7 3 3 5 6 6 6 6 6 5 5 5 5 5 5 5 5 5 4 4 5 6
5 5 5 5 5 5 5 5 6 7 9 10 11 12 10 11 12 12 12 10 9 8 4 5 6 7 7 7 6 6 6 6 5 5 6 6 5 5 5 5 5 5 6
5 6 6 4 5 5 5 5 4 5 7 7 8 12 13 12 12 12 12 9 8 7 5 6 7 7 7 8 7 7 7 6 5 5 6 6 6 5 5 6 6 6 6
5 4 4 4 4 5 5 5 5 5 5 5 6 8 11 10 9 11 10 7 7 7 7 7 6 7 8 8 8 8 7 7 6 5 5 6 6 6 6 7 7 8 7
4 8 7 4 5 5 5 5 5 5 5 6 7 7 7 8 7 8 7 6 6 6 7 7 7 8 8 8 8 8 8 7 7 6 5 5 5 6 7 8 7 7 7
4 5 8 6 4 4 4 4 4 5 5 5 5 6 9 6 6 6 6 6 5 6 6 7 7 7 7 7 8 9 9 8 8 8 7 6 5 5 6 6 7 7 7
3 3 3 3 3 4 4 4 4 4 5 5 5 5 9 5 5 5 5 5 5 4 5 5 5 5 6 6 7 8 8 9 8 8 9 8 7 6 6 6 6 7 7
3 3 3 3 3 4 5 4 4 4 4 5 5 5 5 5 5 5 5 6 5 5 5 5 5 5 5 5 5 5 6 8 9 9 9 9 9 8 7 7 7 7 8
2 3 3 3 3 3 3 4 4 4 4 5 5 5 5 5 5 6 6 6 6 6 5 5 6 7 9 7 5 5 5 7 7 8 10 10 10 9 8 7 8 9 9
2 2 2 2 2 2 3 3 4 4 4 5 5 5 5 6 6 6 6 6 7 7 8 8 6 7 9 10 9 8 11 12 11 9 8 8 10 10 10 9 9 8 9
1 1 2 2 2 2 2 3 4 4 4 5 5 5 6 6 7 7 7 7 8 8 9 8 9 11 12 11 12 14 15 15 14 12 9 8 9 9 10 9 11 10 9
Wind_Direction
210 211 219 254 262 280 299 300 305 312 320 328 330 334 337 339 340 339 325 324 325 314 309 300 287 273 252 236 223 216 209 203 229 244 220 214 206 218 209 208 208 209 213
210 206 217 231 242 272 282 287 300 309 315 321 327 335 338 341 340 336 324 327 318 314 310 306 297 293 271 248 228 224 219 210 215 237 225 209 215 214 209 206 211 213 212
202 202 216 226 238 254 266 280 294 302 313 322 326 326 325 325 326 322 309 308 301 295 295 294 288 290 282 263 242 230 225 221 213 225 232 212 217 207 205 209 209 211 212
200 204 217 228 231 240 256 273 283 292 301 308 308 307 309 309 308 306 306 304 303 299 295 291 283 270 267 263 254 239 228 223 217 227 234 224 219 206 190 201 210 209 210
201 211 224 231 231 240 256 268 279 291 292 293 300 308 310 305 300 300 297 299 301 304 304 298 290 283 277 264 256 234 219 220 222 225 232 226 216 199 205 198 208 205 210
208 221 230 231 233 240 251 260 275 286 290 294 295 299 304 304 310 311 307 296 301 302 304 307 303 295 297 296 288 261 229 222 223 219 226 228 228 216 206 201 200 200 216
216 233 236 234 239 246 252 260 268 272 277 287 288 289 291 293 303 310 314 305 299 298 297 301 310 314 321 304 299 298 274 253 234 221 223 228 225 215 202 205 206 205 214
227 254 252 245 251 256 257 261 263 262 266 272 278 281 283 291 300 303 312 307 301 305 301 293 294 302 304 298 290 297 287 278 259 242 231 233 230 221 207 208 208 208 216
261 265 259 249 254 262 264 263 261 260 266 266 271 276 280 289 296 295 303 299 299 303 303 300 295 292 299 302 286 287 292 288 274 258 249 245 240 228 207 190 191 198 221
274 264 259 252 252 260 263 264 264 258 263 272 278 275 271 278 289 289 290 264 285 295 300 299 296 292 296 297 275 271 278 280 281 283 272 265 250 229 212 206 202 205 205
302 303 299 284 270 267 274 274 275 279 282 282 282 286 282 277 287 288 278 243 259 281 291 294 293 298 297 291 276 258 262 268 267 264 267 261 249 231 220 212 206 205 206
3 0 335 318 312 314 290 292 291 292 297 296 295 299 297 291 286 286 283 263 255 258 274 281 285 295 298 293 281 268 270 272 259 258 261 254 245 237 229 219 213 212 213
22 1 342 339 338 334 322 314 317 315 307 306 306 304 306 308 304 297 292 283 273 261 270 280 290 296 300 296 282 280 279 261 253 258 258 253 243 236 224 219 215 210 210
31 7 355 353 348 348 349 346 344 341 333 330 328 320 318 322 319 313 302 296 292 285 286 294 300 300 297 288 289 285 266 250 245 248 254 254 245 230 223 215 218 207 209
35 17 6 2 354 351 355 356 355 356 13 6 341 329 341 335 324 319 308 301 295 288 303 312 320 322 322 315 307 296 281 268 256 247 247 254 248 238 232 217 212 206 211
38 18 8 3 359 359 358 358 3 11 14 23 25 21 358 346 348 354 347 334 331 332 338 325 319 315 311 306 302 300 289 274 264 254 249 249 245 237 233 224 217 218 220
42 21 11 10 9 7 9 12 3 2 17 21 17 14 12 5 6 5 360 357 1 7 8 341 333 328 323 317 308 297 290 281 270 259 252 248 244 235 228 227 224 228 229
36 31 28 14 10 10 10 11 13 14 10 4 0 5 9 11 14 13 11 16 15 20 6 348 338 334 332 329 324 317 309 302 285 268 260 252 243 235 230 227 226 226 227
32 22 21 15 15 15 13 16 18 18 14 4 2 4 6 8 16 21 24 27 12 2 356 350 345 341 336 332 329 327 321 315 308 293 274 260 250 240 237 231 226 223 221
29 34 40 28 17 16 16 19 18 16 15 14 12 3 0 15 21 16 20 17 10 360 354 350 347 344 342 340 335 332 331 328 323 312 298 283 269 253 243 235 229 226 223
33 25 33 32 20 16 17 16 15 17 13 9 0 358 7 16 10 5 6 5 360 353 349 348 347 345 343 341 343 342 339 336 334 326 315 299 283 273 261 247 235 227 224
42 28 21 16 9 11 10 7 9 11 8 4 351 355 4 9 358 353 349 345 338 332 329 331 333 335 340 343 342 341 340 336 333 331 325 316 301 282 273 263 251 236 225
41 28 19 8 3 5 10 5 3 360 356 352 348 350 352 351 345 341 336 330 326 321 318 316 319 321 321 321 324 327 330 331 328 320 318 315 308 294 277 265 258 250 235
33 21 8 354 354 357 353 349 346 343 342 340 340 339 337 335 331 327 323 317 317 314 310 307 306 307 309 308 307 307 308 310 318 317 311 306 306 300 287 274 262 253 244
21 7 356 340 334 332 333 335 334 333 332 331 330 328 324 323 320 318 315 313 314 313 312 310 304 304 303 302 300 300 303 303 305 314 311 303 300 299 293 282 270 262 250
355 345 328 317 312 313 317 321 323 324 323 323 322 319 317 315 312 311 311 311 311 309 307 305 300 299 298 299 297 296 297 300 301 303 303 300 298 297 296 287 278 264 256
Height
1508 1506 1505 1503 1501 1498 1496 1493 1491 1489 1486 1484 1482 1479 1477 1476 1474 1473 1472 1471 1470 1469 1469 1469 1469 1469 1470 1471 1472 1473 1475 1477 1477 1479 1481 1483 1485 1487 1488 1490 1493 1496 1499
1507 1505 1504 1502 1500 1497 1495 1493 1490 1488 1485 1483 1481 1478 1476 1474 1473 1471 1470 1469 1468 1467 1466 1466 1466 1466 1467 1467 1468 1469 1471 1472 1474 1474 1476 1478 1480 1482 1483 1485 1487 1490 1493
1506 1504 1503 1501 1499 1497 1494 1492 1490 1487 1485 1482 1480 1477 1475 1473 1471 1470 1468 1467 1465 1465 1464 1463 1463 1463 1463 1464 1464 1465 1467 1468 1469 1470 1471 1474 1475 1477 1478 1480 1482 1484 1487
1504 1503 1501 1500 1498 1496 1493 1491 1489 1486 1484 1482 1479 1477 1474 1472 1470 1468 1466 1465 1463 1462 1461 1461 1460 1460 1460 1461 1461 1462 1463 1464 1465 1466 1467 1468 1470 1472 1473 1475 1477 1479 1481
1503 1502 1500 1499 1497 1495 1492 1490 1488 1486 1483 1481 1478 1476 1474 1471 1469 1467 1465 1463 1461 1460 1459 1458 1458 1458 1457 1457 1458 1458 1459 1460 1461 1461 1462 1464 1465 1467 1468 1470 1472 1474 1476
1501 1500 1499 1497 1496 1494 1491 1489 1487 1485 1483 1480 1478 1475 1473 1470 1468 1466 1463 1461 1459 1458 1457 1456 1455 1455 1455 1455 1455 1455 1455 1456 1456 1457 1458 1459 1460 1462 1464 1466 1467 1469 1470
1499 1498 1497 1495 1494 1492 1490 1488 1486 1484 1481 1479 1477 1474 1472 1470 1467 1465 1462 1460 1458 1456 1454 1453 1452 1452 1452 1451 1451 1451 1451 1452 1453 1453 1453 1454 1456 1457 1459 1461 1461 1463 1464
1497 1496 1495 1493 1492 1490 1488 1486 1484 1482 1480 1478 1475 1473 1471 1469 1466 1464 1461 1459 1457 1455 1453 1452 1450 1449 1448 1448 1447 1447 1447 1448 1448 1449 1449 1450 1452 1453 1454 1455 1456 1458 1460
1495 1494 1492 1491 1489 1487 1486 1484 1482 1480 1478 1476 1474 1472 1469 1467 1465 1462 1460 1458 1456 1454 1452 1450 1448 1447 1446 1445 1444 1443 1443 1444 1444 1444 1445 1445 1446 1448 1449 1450 1451 1453 1454
1492 1491 1490 1488 1486 1485 1483 1481 1479 1477 1475 1474 1472 1470 1468 1465 1463 1461 1459 1456 1454 1452 1450 1448 1446 1445 1443 1442 1441 1440 1439 1439 1439 1439 1439 1440 1440 1442 1443 1444 1446 1447 1448
1489 1488 1487 1485 1483 1482 1480 1478 1476 1474 1472 1471 1469 1467 1465 1463 1461 1459 1457 1454 1452 1450 1448 1446 1444 1442 1441 1439 1438 1437 1436 1435 1435 1435 1435 1435 1435 1436 1437 1439 1440 1442 1443
1487 1485 1483 1482 1480 1478 1476 1474 1473 1471 1469 1467 1466 1464 1463 1461 1459 1457 1455 1452 1450 1448 1446 1444 1441 1439 1438 1436 1435 1434 1433 1432 1431 1431 1430 1430 1430 1431 1432 1433 1435 1436 1437
1484 1482 1480 1479 1477 1475 1473 1471 1469 1468 1466 1464 1463 1461 1459 1458 1456 1454 1452 1450 1448 1446 1443 1441 1439 1437 1435 1433 1432 1431 1430 1429 1427 1427 1426 1426 1426 1426 1427 1428 1429 1431 1432
1480 1479 1477 1475 1473 1472 1470 1468 1466 1464 1463 1461 1460 1458 1456 1454 1453 1451 1449 1447 1445 1443 1441 1439 1437 1435 1433 1431 1429 1428 1427 1426 1425 1423 1423 1422 1422 1422 1423 1423 1424 1425 1427
1478 1476 1475 1473 1471 1469 1468 1466 1464 1463 1461 1460 1458 1456 1454 1451 1450 1448 1446 1444 1442 1441 1438 1436 1434 1432 1430 1428 1427 1425 1424 1423 1422 1421 1420 1419 1418 1418 1418 1419 1420 1420 1421
1475 1474 1472 1470 1469 1467 1465 1465 1463 1462 1460 1458 1456 1454 1452 1450 1448 1445 1443 1441 1439 1438 1436 1434 1432 1430 1428 1426 1424 1422 1421 1420 1419 1417 1416 1415 1414 1414 1414 1415 1415 1416 1416
1473 1472 1470 1468 1467 1465 1463 1462 1460 1460 1458 1456 1454 1452 1450 1447 1445 1443 1441 1439 1437 1435 1433 1431 1429 1427 1425 1423 1421 1419 1418 1416 1415 1414 1413 1412 1411 1410 1410 1410 1411 1411 1411
1472 1470 1469 1467 1466 1464 1462 1461 1459 1457 1455 1453 1452 1450 1448 1446 1443 1441 1439 1437 1434 1432 1431 1429 1427 1425 1423 1421 1418 1416 1415 1413 1411 1410 1409 1408 1407 1406 1406 1406 1406 1406 1407
1470 1469 1468 1466 1465 1463 1462 1460 1458 1456 1454 1452 1450 1448 1446 1444 1442 1439 1437 1435 1433 1431 1429 1427 1425 1423 1420 1418 1416 1413 1411 1410 1408 1406 1405 1404 1403 1402 1402 1401 1402 1402 1402
1469 1468 1467 1466 1464 1462 1461 1459 1457 1455 1453 1451 1449 1447 1445 1442 1439 1437 1435 1434 1432 1430 1427 1425 1423 1420 1418 1415 1413 1410 1408 1406 1404 1402 1401 1399 1398 1398 1397 1397 1396 1397 1397
1468 1467 1466 1465 1463 1462 1460 1458 1456 1454 1452 1450 1449 1447 1444 1441 1439 1437 1435 1433 1430 1428 1425 1423 1420 1418 1415 1412 1409 1407 1404 1402 1400 1398 1396 1395 1393 1392 1392 1391 1391 1391 1391
1467 1466 1465 1464 1462 1461 1459 1458 1456 1454 1452 1449 1447 1445 1443 1441 1438 1436 1433 1431 1429 1426 1424 1421 1418 1415 1412 1409 1406 1403 1401 1398 1396 1394 1392 1390 1389 1387 1386 1386 1385 1385 1386
1465 1464 1463 1462 1461 1460 1458 1456 1454 1452 1450 1448 1446 1443 1441 1438 1436 1433 1431 1428 1426 1423 1420 1417 1414 1411 1409 1406 1403 1400 1397 1394 1391 1389 1387 1385 1383 1382 1381 1380 1380 1380 1380
1464 1463 1462 1461 1460 1458 1456 1454 1452 1450 1448 1446 1443 1441 1438 1436 1433 1430 1427 1425 1422 1419 1416 1413 1410 1406 1403 1401 1398 1395 1392 1390 1387 1384 1381 1379 1377 1376 1374 1374 1373 1373 1373
1462 1461 1460 1459 1457 1456 1454 1452 1450 1448 1445 1443 1440 1438 1435 1432 1429 1426 1423 1420 1416 1413 1410 1407 1404 1400 1397 1394 1391 1389 1386 1383 1381 1378 1375 1373 1371 1369 1368 1366 1366 1365 1366
1459 1459 1458 1456 1455 1453 1451 1449 1447 1444 1442 1439 1437 1434 1431 1428 1424 1421 1417 1414 1410 1406 1403 1399 1396 1393 1390 1386 1383 1381 1378 1375 1373 1370 1368 1365 1363 1361 1360 1359 1358 1358 1358